When you browse on this site, cookies collect data to enhance your experience and personalize the content and advertising you see.
Visit our Privacy Policy to learn more. By continuing to use the site, you agree to this use of cookies and data.
  • en Suisse
  • Liste des pays
  • À 7 jours
  • Température de l'eau
  • Carte satellitaire
  • Carte météo
  • Widgets météo
  • user-avatar
    Se connecter

    Météo par heure à Bruchsal

    Ce jour, 26 Mai, Dimanche

    Heure Température Précipitation Vent Pression Humidité
    00:00 +14°C° 0 mm 1 m/s 751 mmHg 73%
    01:00 +13°C° 0 mm 1 m/s 752 mmHg 78%
    02:00 +13°C° 0 mm 1 m/s 752 mmHg 80%
    03:00 +12°C° 0 mm 1 m/s 752 mmHg 82%
    04:00 +12°C° 0 mm 1 m/s 752 mmHg 84%
    05:00 +13°C° 0 mm 1 m/s 752 mmHg 81%
    06:00 +14°C° 0 mm 1 m/s 752 mmHg 79%
    07:00 +15°C° 0 mm 1 m/s 752 mmHg 77%
    08:00 +17°C° 0 mm 2 m/s 751 mmHg 71%
    09:00 +18°C° 0 mm 2 m/s 751 mmHg 66%
    10:00 +20°C° 0 mm 2 m/s 751 mmHg 60%
    11:00 +21°C° 0 mm 2 m/s 751 mmHg 57%
    12:00 +22°C° 0 mm 3 m/s 750 mmHg 53%
    13:00 +23°C° 0 mm 2 m/s 751 mmHg 51%
    14:00 +22°C° 0 mm 3 m/s 750 mmHg 51%
    15:00 +22°C° 0 mm 3 m/s 750 mmHg 51%
    16:00 +24°C° 0 mm 3 m/s 749 mmHg 51%
    17:00 +21°C° 0 mm 3 m/s 749 mmHg 55%
    18:00 +20°C° 0 mm 3 m/s 749 mmHg 60%
    19:00 +19°C° 0 mm 3 m/s 748 mmHg 64%
    20:00 +18°C° 0 mm 2 m/s 748 mmHg 68%
    21:00 +17°C° 0 mm 2 m/s 749 mmHg 73%
    22:00 +15°C° 0 mm 2 m/s 749 mmHg 77%
    23:00 +15°C° 0 mm 2 m/s 749 mmHg 80%

    Demain, 27 Mai, Lundi

    Heure Température Précipitation Vent Pression Humidité
    00:00 +14°C° 0 mm 2 m/s 749 mmHg 83%
    01:00 +14°C° 0 mm 2 m/s 749 mmHg 86%
    02:00 +13°C° 0 mm 2 m/s 748 mmHg 87%
    03:00 +13°C° 0 mm 2 m/s 748 mmHg 88%
    04:00 +13°C° 0 mm 2 m/s 748 mmHg 90%
    05:00 +14°C° 0 mm 2 m/s 748 mmHg 87%
    06:00 +14°C° 0 mm 2 m/s 748 mmHg 84%
    07:00 +15°C° 0 mm 2 m/s 747 mmHg 82%
    08:00 +17°C° 0 mm 3 m/s 747 mmHg 77%
    09:00 +18°C° 0 mm 3 m/s 747 mmHg 71%
    10:00 +20°C° 0 mm 3 m/s 747 mmHg 66%
    11:00 +20°C° 0.1 mm 3 m/s 747 mmHg 66%
    12:00 +21°C° 0.1 mm 3 m/s 746 mmHg 65%
    13:00 +21°C° 0.1 mm 3 m/s 746 mmHg 64%
    14:00 +20°C° 0.2 mm 3 m/s 746 mmHg 68%
    15:00 +20°C° 0.2 mm 3 m/s 745 mmHg 73%
    16:00 +19°C° 0.2 mm 3 m/s 745 mmHg 77%
    17:00 +19°C° 0.1 mm 2 m/s 745 mmHg 78%
    18:00 +18°C° 0.1 mm 2 m/s 745 mmHg 79%
    19:00 +18°C° 0.1 mm 2 m/s 745 mmHg 81%
    20:00 +17°C° 0 mm 2 m/s 745 mmHg 83%
    21:00 +16°C° 0 mm 2 m/s 745 mmHg 86%
    22:00 +15°C° 0 mm 1 m/s 745 mmHg 89%
    23:00 +15°C° 0.1 mm 1 m/s 745 mmHg 90%

    Après-demain, 28 Mai, Mardi

    Heure Température Précipitation Vent Pression Humidité
    00:00 +14°C° 0.1 mm 1 m/s 745 mmHg 91%
    01:00 +14°C° 0.1 mm 1 m/s 745 mmHg 92%
    02:00 +14°C° 0.3 mm 1 m/s 745 mmHg 91%
    03:00 +14°C° 0.3 mm 1 m/s 745 mmHg 90%
    04:00 +14°C° 0.3 mm 2 m/s 745 mmHg 89%
    05:00 +14°C° 0.1 mm 2 m/s 745 mmHg 88%
    06:00 +13°C° 0.1 mm 3 m/s 745 mmHg 87%
    07:00 +13°C° 0.1 mm 3 m/s 745 mmHg 86%
    08:00 +14°C° 0.1 mm 4 m/s 745 mmHg 81%
    09:00 +14°C° 0.1 mm 4 m/s 746 mmHg 75%
    10:00 +15°C° 0.1 mm 5 m/s 746 mmHg 70%
    11:00 +16°C° 0 mm 5 m/s 746 mmHg 66%
    12:00 +17°C° 0 mm 4 m/s 746 mmHg 62%
    13:00 +18°C° 0 mm 4 m/s 746 mmHg 58%
    14:00 +18°C° 0.2 mm 4 m/s 746 mmHg 57%
    15:00 +18°C° 0.2 mm 4 m/s 746 mmHg 57%
    16:00 +19°C° 0.2 mm 4 m/s 746 mmHg 56%
    17:00 +18°C° 0.1 mm 4 m/s 746 mmHg 60%
    18:00 +17°C° 0.1 mm 3 m/s 747 mmHg 64%
    19:00 +16°C° 0.1 mm 3 m/s 747 mmHg 69%
    20:00 +14°C° 0 mm 3 m/s 747 mmHg 73%
    21:00 +14°C° 0 mm 2 m/s 748 mmHg 76%
    22:00 +13°C° 0 mm 2 m/s 749 mmHg 80%
    23:00 +12°C° 0 mm 2 m/s 749 mmHg 83%

    29 Mai, Mercredi

    Heure Température Précipitation Vent Pression Humidité
    00:00 +12°C° 0 mm 2 m/s 749 mmHg 86%
    01:00 +10°C° 0 mm 2 m/s 749 mmHg 88%
    02:00 +10°C° 0 mm 2 m/s 750 mmHg 89%
    03:00 +9°C° 0 mm 2 m/s 750 mmHg 90%
    04:00 +9°C° 0 mm 2 m/s 750 mmHg 91%
    05:00 +10°C° 0 mm 2 m/s 751 mmHg 89%
    06:00 +10°C° 0 mm 2 m/s 751 mmHg 86%
    07:00 +12°C° 0 mm 2 m/s 752 mmHg 83%
    08:00 +12°C° 0 mm 3 m/s 752 mmHg 79%
    09:00 +14°C° 0 mm 3 m/s 752 mmHg 75%
    10:00 +16°C° 0 mm 3 m/s 752 mmHg 70%
    11:00 +17°C° 0 mm 3 m/s 752 mmHg 67%
    12:00 +18°C° 0 mm 3 m/s 752 mmHg 63%
    13:00 +19°C° 0 mm 4 m/s 752 mmHg 60%
    14:00 +19°C° 0 mm 4 m/s 752 mmHg 58%
    15:00 +20°C° 0 mm 4 m/s 752 mmHg 56%
    16:00 +20°C° 0 mm 4 m/s 752 mmHg 54%
    17:00 +19°C° 0 mm 4 m/s 752 mmHg 58%
    18:00 +18°C° 0 mm 3 m/s 752 mmHg 63%
    19:00 +17°C° 0 mm 3 m/s 752 mmHg 68%
    20:00 +16°C° 0 mm 3 m/s 753 mmHg 72%
    21:00 +14°C° 0 mm 3 m/s 753 mmHg 77%
    22:00 +13°C° 0 mm 3 m/s 754 mmHg 81%
    23:00 +13°C° 0 mm 2 m/s 754 mmHg 83%

    30 Mai, Jeudi

    Heure Température Précipitation Vent Pression Humidité
    00:00 +13°C° 0 mm 2 m/s 754 mmHg 84%
    01:00 +12°C° 0 mm 2 m/s 754 mmHg 86%
    02:00 +12°C° 0.2 mm 3 m/s 753 mmHg 87%
    03:00 +12°C° 0.2 mm 3 m/s 753 mmHg 87%
    04:00 +12°C° 0.2 mm 3 m/s 753 mmHg 87%
    05:00 +12°C° 0.1 mm 3 m/s 753 mmHg 88%
    06:00 +13°C° 0.1 mm 4 m/s 753 mmHg 89%
    07:00 +13°C° 0.1 mm 4 m/s 753 mmHg 89%
    08:00 +13°C° 0.1 mm 4 m/s 754 mmHg 89%
    09:00 +14°C° 0.1 mm 4 m/s 754 mmHg 89%
    10:00 +14°C° 0.1 mm 5 m/s 754 mmHg 88%
    11:00 +15°C° 0.1 mm 5 m/s 754 mmHg 83%
    12:00 +17°C° 0.1 mm 5 m/s 754 mmHg 79%
    13:00 +19°C° 0.1 mm 6 m/s 754 mmHg 74%
    14:00 +19°C° 0.2 mm 6 m/s 754 mmHg 73%
    15:00 +20°C° 0.2 mm 6 m/s 754 mmHg 72%
    16:00 +20°C° 0.2 mm 6 m/s 754 mmHg 71%
    17:00 +19°C° 0 mm 5 m/s 754 mmHg 74%
    18:00 +19°C° 0 mm 4 m/s 754 mmHg 76%
    19:00 +18°C° 0 mm 3 m/s 754 mmHg 78%
    20:00 +18°C° 0.1 mm 3 m/s 754 mmHg 81%
    21:00 +17°C° 0.1 mm 4 m/s 754 mmHg 84%
    22:00 +17°C° 0.1 mm 4 m/s 754 mmHg 88%
    23:00 +15°C° 0.4 mm 4 m/s 754 mmHg 88%

    31 Mai, Vendredi

    Heure Température Précipitation Vent Pression Humidité
    00:00 +15°C° 0.4 mm 5 m/s 754 mmHg 89%
    01:00 +15°C° 0.4 mm 5 m/s 753 mmHg 89%
    02:00 +15°C° 1.1 mm 5 m/s 753 mmHg 91%
    03:00 +15°C° 1.1 mm 5 m/s 753 mmHg 92%
    04:00 +15°C° 1.1 mm 5 m/s 753 mmHg 93%
    05:00 +15°C° 0.6 mm 5 m/s 754 mmHg 90%
    06:00 +15°C° 0.6 mm 4 m/s 754 mmHg 88%
    07:00 +15°C° 0.6 mm 4 m/s 755 mmHg 85%
    08:00 +15°C° 0 mm 4 m/s 756 mmHg 79%
    09:00 +15°C° 0 mm 4 m/s 757 mmHg 74%
    10:00 +15°C° 0 mm 5 m/s 757 mmHg 69%
    11:00 +17°C° 0 mm 4 m/s 758 mmHg 62%
    12:00 +18°C° 0 mm 4 m/s 758 mmHg 55%
    13:00 +19°C° 0 mm 3 m/s 759 mmHg 49%
    14:00 +19°C° 0 mm 3 m/s 759 mmHg 47%
    15:00 +19°C° 0 mm 3 m/s 759 mmHg 45%
    16:00 +19°C° 0 mm 3 m/s 760 mmHg 44%
    17:00 +19°C° 0 mm 2 m/s 760 mmHg 48%
    18:00 +18°C° 0 mm 2 m/s 760 mmHg 51%
    19:00 +18°C° 0 mm 1 m/s 760 mmHg 55%
    20:00 +16°C° 0 mm 1 m/s 761 mmHg 58%
    21:00 +14°C° 0 mm 1 m/s 761 mmHg 61%
    22:00 +12°C° 0 mm 1 m/s 762 mmHg 63%
    23:00 +12°C° 0 mm 1 m/s 762 mmHg 66%
    Voir plus